Location: Katzenstein
(51.7484°N, 10.2155°E)
Time: 17:12:18
(UTC+00:00)

Cosmos 2333 Rocket - Pass Details

Date: 17 February 2020
Orbit: 841 x 860 km, 70.8° (Epoch: 07 April)

Event Time Altitude Azimuth Distance (km) Brightness Sun altitude
Exits shadow 05:13:55 11° 309° (NW) 2,454 4.1 -12.5°
Maximum altitude 05:16:43 14° 339° (NNW) 2,196 4.1 -12.1°
Drops below altitude 10° 05:19:45 10° 12° (NNE) 2,492 4.7 -11.6°
Sets 05:23:30 0° 36° (NE) 3,426 5.8 -11.0°
